[Iaude] MPEC W126: 2016 WG9 [a=2.34,e=0.64,i=5.8,H=21.2,PHA]

mpec at si.edu mpec at si.edu
Tue Nov 29 23:27:28 EST 2016


M.P.E.C. 2016-W126                               Issued 2016 Nov. 30, 04:24 UT
 
     The Minor Planet Electronic Circulars contain information on unusual
         minor planets and routine data on comets.  They are published
    on behalf of Division F of the International Astronomical Union by the
          Minor Planet Center, Smithsonian Astrophysical Observatory,
                          Cambridge, MA 02138, U.S.A.

             Prepared using the Tamkin Foundation Computer Network

                              MPC at CFA.HARVARD.EDU
            URL http://www.minorplanetcenter.net/    ISSN 1523-6714


                                   2016 WG9
 
Observations:
     K16W09G  C2016 05 05.46267 15 41 07.202-07 11 34.52         22.8 wLEW126F51
     K16W09G  C2016 05 05.48667 15 41 05.264-07 11 21.56         22.7 wLEW126F51
     K16W09G  C2016 05 05.49868 15 41 04.291-07 11 14.91         22.9 wLEW126F51
     K16W09G  C2016 11 20.56769 05 53 30.215+04 49 12.43         20.5 iLEW126F51
     K16W09G  C2016 11 20.57843 05 53 28.243+04 49 25.54         20.5 iLEW126F51
     K16W09G  C2016 11 20.58919 05 53 26.259+04 49 38.61         19.9 iLEW126F51
     K16W09G* C2016 11 28.53473 05 31 40.835+07 21 47.56         20.6 wLEW126F51
     K16W09G  C2016 11 28.54740 05 31 38.805+07 22 00.92         20.6 wLEW126F51
     K16W09G  C2016 11 28.56011 05 31 36.781+07 22 14.48         20.5 wLEW126F51
     K16W09G  C2016 11 28.57286 05 31 34.747+07 22 28.11         20.5 wLEW126F51
     K16W09G  C2016 11 28.91907 05 30 43.76 +07 28 29.5          20.8 VSEW126033
     K16W09G  C2016 11 28.92144 05 30 43.39 +07 28 31.9          21.3 VSEW126033
     K16W09G  C2016 11 28.92381 05 30 43.01 +07 28 34.7          21.2 VSEW126033
     K16W09G  C2016 11 28.92617 05 30 42.64 +07 28 37.1          21.2 VSEW126033
     K16W09G KC2016 11 28.97997 05 30 34.47 +07 29 34.0                qEW126J95
     K16W09G KC2016 11 28.98723 05 30 33.36 +07 29 42.9                qEW126J95
     K16W09G KC2016 11 29.00211 05 30 30.99 +07 29 58.5          20.5 RqEW126J95
     K16W09G  C2016 11 29.01833 05 30 28.25 +07 30 15.7          20.9 VSEW126033
     K16W09G  C2016 11 29.02069 05 30 27.91 +07 30 18.1          21.0 VSEW126033
     K16W09G  C2016 11 29.02307 05 30 27.53 +07 30 20.8          20.9 VSEW126033
     K16W09G  C2016 11 29.02543 05 30 27.16 +07 30 23.3          21.0 VSEW126033
     K16W09G KC2016 11 29.20387 05 30 01.20 +07 33 36.9          20.4 RqEW126734
     K16W09G KC2016 11 29.21243 05 29 59.90 +07 33 46.2          20.1 RqEW126734
     K16W09G KC2016 11 29.22094 05 29 58.51 +07 33 55.1          20.4 RqEW126734
     K16W09G KC2016 11 29.97301 05 28 07.04 +07 47 05.7                qEW126J95
     K16W09G KC2016 11 29.98152 05 28 05.72 +07 47 15.1                qEW126J95
     K16W09G KC2016 11 29.99028 05 28 04.33 +07 47 24.0          20.0 RqEW126J95
 
Observer details:
033 Karl Schwarzschild Observatory, Tautenburg.  Observers B. Stecklum,
    C. Hoegner.  Measurer B. Stecklum.  1.34-m f/3 Schmidt + CCD.
734 Farpoint Observatory.  Observer G. Hug.  0.69-m reflector + CCD.
F51 Pan-STARRS 1, Haleakala.  Observers B. Gibson, T. Goggia, S. Kahale,
    A. Schultz, M. Willman.  Measurers K. Chambers, S. Chastel, L. Denneau,
    H. Flewelling, M. Huber, E. Lilly, E. Magnier, R. Wainscoat, C. Waters,
    R. Weryk.  1.8-m Ritchey-Chretien + CCD.
J95 Great Shefford.  Observer P. Birtwhistle.  0.40-m f/6.0 Schmidt-Cassegrain
    + CCD.
 
Orbital elements:
2016 WG9                                            PHA, Earth MOID = 0.0282 AU
Epoch 2017 Feb. 16.0 TT = JDT 2457800.5                 MPC
M  43.01423              (2000.0)            P               Q
n   0.27450178     Peri.  219.74943     +0.94965192     +0.30158311
a   2.3448007      Node   122.49978     -0.25571511     +0.90266493
e   0.6421826      Incl.    5.77779     -0.18102765     +0.30699130
P   3.59           H   21.2           G   0.15           U   6
Residuals in seconds of arc
160505 F51  0.0   0.1+    161128 F51  0.1-  0.2-    161129 033  0.1+  0.1-
160505 F51  0.0   0.1-    161128 033  0.0   0.0     161129 033  0.0   0.0
160505 F51  0.1-  0.0     161128 033  0.0   0.1-    161129 033  0.1-  0.0
161120 F51  0.1-  0.0     161128 033  0.2-  0.1+    161129 734  0.5-  0.2+
161120 F51  0.1+  0.1+    161128 033  0.2-  0.0     161129 734  0.1-  0.3+
161120 F51  0.2+  0.0     161128 J95  0.1+  0.5-    161129 734  1.1-  0.1+
161128 F51  0.1-  0.1-    161128 J95  0.4+  0.6+    161129 J95  0.7+  0.1-
161128 F51  0.1-  0.3-    161129 J95  0.4-  0.3+    161129 J95  0.4+  0.3+
161128 F51  0.1-  0.3-    161129 033  0.3-  0.0     161129 J95  0.5-  0.0

Ephemeris:
2016 WG9                 a,e,i = 2.34, 0.64, 6                   q = 0.8390
Date    TT    R. A. (2000) Decl.     Delta      r     Elong.  Phase     V
2016 10 31    07 01 09.5 -03 19 34   0.2427  1.0946   108.6    59.3    20.4
...
2016 11 15    06 10 24.8 +02 51 09   0.3084  1.2293   135.9    34.1    20.5
...
2016 11 23    05 46 31.4 +05 37 57   0.3536  1.3039   149.2    22.8    20.6
...
2016 11 29    05 30 31.2 +07 30 11   0.3943  1.3602   158.1    15.7    20.7
2016 11 30    05 28 02.8 +07 47 48   0.4017  1.3696   159.4    14.7    20.7
2016 12 01    05 25 37.9 +08 05 08   0.4093  1.3790   160.7    13.7    20.7
...
2016 12 07    05 12 29.1 +09 42 45   0.4590  1.4355   166.5     9.2    20.9
...
2016 12 15    04 58 42.8 +11 36 49   0.5363  1.5104   166.1     9.0    21.3
...
2016 12 30    04 43 59.5 +14 29 20   0.7146  1.6486   152.0    16.3    22.4

A. U. Tomatic                (C) Copyright 2016 MPC           M.P.E.C. 2016-W126




More information about the Iaude mailing list